Skip Page Navigation
NASA JPL Caltech
NASA Logo - Jet Propulsion Laboratory + View the NASA Portal
+ Center for Near-Earth Object Studies
JPL Home Earth Solar System Stars & Galaxies Technology
JPL Solar System Dynamics
BODIES ORBITS EPHEMERIDES TOOLS PHYSICAL DATA DISCOVERY FAQ SITE MAP
IMPORTANT: The SSD Announcement email list is now available. Major changes are coming in the near future, including possible hostname and/or URL changes. To be notified of such changes, subscribe to this email list.

Please visit this page for more details.


JPL Small-Body Database Browser
Search: [ help ]  
15468 Mondriaan (1999 AT31)
Classification: Main-belt Asteroid          SPK-ID: 2015468
Ephemeris | Orbit Diagram | Orbital Elements | Mission Design | Physical Parameters | Discovery Circumstances | Close-Approach Data ]

[ show orbit diagram ]
Orbital Elements at Epoch 2458600.5 (2019-Apr-27.0) TDB
Reference: JPL 26 (heliocentric ecliptic J2000)
 Element Value Uncertainty (1-sigma)   Units 
e .01617800363966146 3.721e-08  
a 2.908490074965246 1.5211e-08 au
q 2.861436511946538 1.1045e-07 au
i 1.814296539383478 4.1936e-06 deg
node 356.2357324627826 0.00012545 deg
peri 308.7228900523733 0.00017935 deg
M 224.6793844258947 0.00012942 deg
tp 2459281.522201150482
(2021-Mar-08.02220115)
0.00065204 TDB
period 1811.756408098165
4.96
1.4213e-05
3.891e-08
d
yr
n .1987022087466487 1.5588e-09 deg/d
Q 2.955543637983953 1.5457e-08 au
  Orbit Determination Parameters
   # obs. used (total)      1736  
   data-arc span      13329 days (36.49 yr)  
   first obs. used      1982-11-09  
   last obs. used      2019-05-08  
   planetary ephem.      DE431  
   SB-pert. ephem.      SB431-N16  
   condition code      0  
   norm. resid. RMS      .5196  
   source      ORB  
   producer      Otto Matic  
   solution date      2019-May-30 02:20:03  

Additional Information
 Earth MOID = 1.84582 au 
 Jupiter MOID = 2.06585 au 
 T_jup = 3.283 
[ show covariance matrix ]

Ephemeris | Orbit Diagram | Orbital Elements | Mission Design | Physical Parameters | Discovery Circumstances | Close-Approach Data ]

Physical Parameter Table
Parameter Symbol Value Units Sigma Reference Notes
absolute magnitude H 13.7   n/a MPO384888  
diameter diameter 5.335 km 0.182 urn:nasa:pds:neowise_diameters_albedos::2.0[mainbelt] (http://adsabs.harvard.edu/abs/2011ApJ...741...68M)  
rotation period rot_per 2.64 h n/a LCDB (Rev. 2019-January); Warner et al., 2009 Result based on less than full coverage, so that the period may be wrong by 30 percent or so.
Published Reference List:
[Chang, C.K.; Ip, W.-H.; Lin, H.-W.; Cheng, Y.C.; et al. (2015) Astrophys. J. Supp. Ser. 219, A27.]
geometric albedo albedo 0.247   0.034 urn:nasa:pds:neowise_diameters_albedos::2.0[mainbelt] (http://adsabs.harvard.edu/abs/2011ApJ...741...68M)  

15468 Mondriaan           Discovered 1999 Jan. 14 by Spacewatch at Kitt Peak.
Pieter C. Mondriaan (1872-1944) was a Dutch Neo-plasticist painter. He developed Neo-plasticism painting, which consisted of a grid of vertical and horizontal black lines and the use of three primary colours. Name suggested and citation provided by W. A. Fröger.
NOTE: some special characters may not display properly (any characters within {} are an attempt to place the proper accent above a character)
Reference: MPC batch dated 2014-01-16Last Updated: 2014-01-21

[ show close-approach data ]
Alternate Designations
 1999 AT31 = 1982 VV7 = 1991 PN12 = 1994 FA1 
Ephemeris | Orbit Diagram | Orbital Elements | Mission Design | Physical Parameters | Discovery Circumstances | Close-Approach Data ]
ABOUT SSD CREDITS/AWARDS PRIVACY/COPYRIGHT GLOSSARY LINKS
FirstGov 2020-Jan-21 23:43 UT
(server date/time)  
NASA Home Page
Site Manager:   Ryan S. Park
Webmaster  Alan B. Chamberlin